Preview of NWS' New Version of Forecast
This preview is not operational and should not be used for support decisions.

Regional Weather Roundup (RWR)

Issued by National Weather Service (NWS)

                            
000
ASUS44 KMEG 240900
RWRTN 
TENNESSEE HOURLY STATE WEATHER ROUNDUP
NATIONAL WEATHER SERVICE MEMPHIS TN
400 AM CDT SUN MAR 24 2019

TNZ002-004-019-021-049-052-054-088>092-241000-
WEST TENNESSEE
  
CITY           SKY/WX    TMP DP  RH WIND       PRES   REMARKS
MEMPHIS INTL   MOCLDY    57  35  43 SE3       30.11F                  
NWS MEMPHIS      N/A     53 N/A N/A MISG        N/A                   
JACKSON        FAIR      53  34  48 CALM      30.14F                  
DYERSBURG      MOCLDY    56  35  45 SE5       30.13F                  
$$

TNZ008-025-027-028-033-062-065-066-241000-
NORTH MIDDLE TENNESSEE
  
CITY           SKY/WX    TMP DP  RH WIND       PRES   REMARKS
NASHVILLE      MOCLDY    43  31  62 CALM      30.19F                  
CLARKSVILLE    FAIR      42  32  67 SE6       30.16F                  
SMYRNA         FAIR      39  33  79 SE3       30.21F                  
CROSSVILLE     FAIR      37  23  56 CALM      30.23F                  
$$

TNZ061-075-076-078-094-096-097-241000-
SOUTH MIDDLE TENNESSEE
  
CITY           SKY/WX    TMP DP  RH WIND       PRES   REMARKS
FAYETTEVILLE   CLEAR     48  25  40 CALM      30.19F                  
$$

TNZ017-018-042-046-047-241000-
NORTHEAST TENNESSEE
  
CITY           SKY/WX    TMP DP  RH WIND       PRES   REMARKS
TRI CITIES     CLOUDY    33  26  75 CALM      30.25S                  
$$

TNZ012-013-036-069-073-074-241000-
CENTRAL EAST TENNESSEE
  
CITY           SKY/WX    TMP DP  RH WIND       PRES   REMARKS
KNOXVILLE      FAIR      40  26  57 CALM      30.24R                  
OAK RIDGE      FAIR      38  29  70 CALM      30.26S                  
$$

TNZ083-085-099-241000-
SOUTHEAST TENNESSEE
  
CITY           SKY/WX    TMP DP  RH WIND       PRES   REMARKS
CHATTANOOGA    FAIR      41  35  79 CALM      30.25S                  
$$

SKY/WX REPORTED AS FAIR MEANS FEW OR NO CLOUDS BELOW
12 THOUSAND FEET.